Location: McCall
(45.0000°N, 116.0000°W)
Time: 17:44:53
(UTC-07:00)

Saudisat 1A - Visible Passes

Search period start: 30 January 2015 00:00
Search period end: 09 February 2015 00:00
Orbit: 589 x 613 km, 64.6° (Epoch: 29 January)

Date Brightness Start Highest point End Pass type
(mag) Time Alt. Az. Time Alt. Az. Time Alt. Az.
30 Jan 11.2 04:24:27 11° ENE 04:24:27 11° ENE 04:24:36 10° ENE visible
30 Jan 8.6 06:01:14 42° NNW 06:01:14 42° NNW 06:04:43 10° NNE visible
31 Jan 11.0 04:36:07 13° NE 04:36:07 13° NE 04:36:38 10° NE visible
31 Jan 9.2 06:12:54 28° NNW 06:12:54 28° NNW 06:16:02 10° NNE visible
01 Feb 10.8 04:47:40 14° NE 04:47:40 14° NE 04:48:20 10° NE visible
01 Feb 9.6 06:24:26 19° NNW 06:24:26 19° NNW 06:27:12 10° N visible
02 Feb 10.6 04:59:08 15° NNE 04:59:08 15° NNE 04:59:51 10° NNE visible
02 Feb 10.0 06:35:53 14° NNW 06:35:55 14° NNW 06:38:10 10° N visible
03 Feb 10.5 05:10:31 14° NNE 05:10:31 14° NNE 05:11:14 10° NNE visible
04 Feb 10.5 05:21:49 13° N 05:21:49 13° N 05:22:29 10° NNE visible
05 Feb 10.5 05:33:06 12° N 05:33:06 12° N 05:33:34 10° N visible
06 Feb 10.6 05:44:20 10° N 05:44:20 10° N 05:44:21 10° N visible
